Flag for U.S.A. Weather past 2 weeks in Panama City, Florida, U.S.A.

Now
78 °F

Clear.


Feels Like: 80 °F
Forecast: 66 / 82 °F
Wind: 8 mph from Northeast

Location: Tyndall Air Force Base

Current Time: Sep 23, 2014 at 7:51:38 PM

Latest Report: Sep 23, 2014 at 6:58 PM


Visibility: 10 mi

Pressure: 30.04 "Hg

Humidity: 70%

Dew point: 67 °F

Location of Panama CityLocation

Historic Weather in Panama City — Graph

°F

Panama City temperature yesterday

Maximum temperature yesterday: 87 °F (at 11:58 AM)
Minimum temperature yesterday: 66 °F (at 4:58 AM)
Average temperature yesterday: 75 °F

Past Weeks' High & Low Weather Summary

 TemperatureHumidityPressure
High92 °F (Sep 13, 12:58 PM)100% (Sep 8, 10:58 PM)30.14 "Hg (Sep 8, 10:58 PM)
Low66 °F (Sep 22, 4:58 AM)59% (Sep 21, 1:58 PM)29.88 "Hg (Sep 17, 4:58 PM)
Average79 °F88%30.01 "Hg
* Reported Sep 8 6:58 PM — Sep 23 6:58 PM, Panama City, Weather by CustomWeather, © 2014

Note: Actual official high and low records may vary slightly from our data, if they occured in-between our weather recording intervals... More about our weather records

Advertising

Panama City weather history for previous 24 hours

 ConditionsComfort  
Time TempWeatherWind HumidityBarometerVisibility
6:58 PM
Sep 23
78 °FClear.8 mph70%30.04 "Hg10 mi
5:58 PM81 °FSunny.6 mph65%30.02 "Hg10 mi
4:58 PM84 °FSunny.10 mph61%30.02 "Hg10 mi
3:58 PM85 °FScattered clouds.9 mph62%30.02 "Hg10 mi
2:58 PM85 °FPassing clouds.9 mph64%30.03 "Hg10 mi
1:58 PM85 °FSunny.9 mph63%30.04 "Hg10 mi
12:58 PM84 °FPassing clouds.8 mph66%30.07 "Hg10 mi
11:58 AM82 °FSunny.10 mph69%30.08 "Hg10 mi
10:58 AM80 °FScattered clouds.10 mph72%30.08 "Hg10 mi
9:58 AM76 °FPartly sunny.10 mph77%30.08 "Hg10 mi
8:58 AM72 °FPartly sunny.10 mph84%30.08 "Hg10 mi
7:58 AM69 °FScattered clouds.9 mph99%30.06 "Hg10 mi
6:58 AM67 °FPartly sunny.9 mph99%30.05 "Hg10 mi
5:58 AM67 °FLow clouds.8 mph100%30.02 "Hg10 mi
4:58 AM67 °FClear.8 mph99%30.02 "Hg10 mi
3:58 AM68 °FClear.8 mph98%30.01 "Hg10 mi
2:58 AM69 °FClear.8 mph93%30.01 "Hg10 mi
1:58 AM69 °FClear.7 mph91%30.02 "Hg10 mi
12:58 AM70 °FPassing clouds.6 mph84%30.03 "Hg10 mi
11:58 PM
Sep 22
71 °FOvercast.6 mph83%30.03 "Hg10 mi
10:58 PM71 °FPassing clouds.6 mph83%30.03 "Hg10 mi
9:58 PM72 °FClear.8 mph84%30.03 "Hg10 mi
8:58 PM73 °FClear.6 mph85%30.03 "Hg10 mi
7:58 PM74 °FClear.5 mph81%30.01 "Hg10 mi
Weather by CustomWeather, © 2014

See weather overviewHow to use our weather pages